Location: D�rnast
(49.6426°N, 11.9755°E)
Time: 09:20:39
(UTC+00:00)

Envisat - Visible Passes

Search period start: 17 April 2021 00:00
Search period end: 27 April 2021 00:00
Orbit: 764 x 766 km, 98.1° (Epoch: 16 April)

Date Brightness Start Highest point End Pass type
(mag) Time Alt. Az. Time Alt. Az. Time Alt. Az.
18 Apr 6.3 03:12:45 10° ENE 03:13:58 11° E 03:15:10 10° E visible
20 Apr 5.8 03:36:15 10° NE 03:39:44 18° E 03:43:12 10° SE visible
23 Apr 6.0 03:25:19 10° NE 03:28:08 15° E 03:30:56 10° ESE visible
26 Apr 6.2 03:14:43 10° ENE 03:16:30 12° E 03:18:17 10° ESE visible
